This is the latest recevied weather packets stored in our database for station/object WB0OCV. If no packets are shown the sender has not sent any weather packets the latest 10 day(s).
| Time | Temp. | Humidity | Pressure | Rain* | Wind** | Luminosity | Snow |
|---|---|---|---|---|---|---|---|
| 1777663283 | 16.67° C | 53% | 1011.4 hPa | 0 mm | - | 646 W/m² | - |
| 1777662980 | 16.11° C | 53% | 1011.3 hPa | 0 mm | - | 649 W/m² | - |
| 1777662677 | 16.11° C | 52% | 1011.2 hPa | 0 mm | - | 660 W/m² | - |
| 1777662374 | 16.67° C | 50% | 1011.5 hPa | 0 mm | - | 670 W/m² | - |
| 1777662069 | 16.11° C | 51% | 1011.4 hPa | 0 mm | - | 681 W/m² | - |
| 1777661765 | 16.67° C | 50% | 1011.6 hPa | 0 mm | - | 690 W/m² | - |
| 1777661461 | 16.67° C | 55% | 1011.5 hPa | 0 mm | - | 700 W/m² | - |
| 1777661157 | 16.11° C | 52% | 1011.5 hPa | 0 mm | - | 709 W/m² | - |
| 1777660852 | 16.67° C | 47% | 1011.6 hPa | 0 mm | - | 721 W/m² | - |
| 1777660549 | 16.67° C | 50% | 1011.6 hPa | 0 mm | - | 727 W/m² | - |
| 1777660246 | 16.67° C | 46% | 1011.5 hPa | 0 mm | - | 738 W/m² | - |
| 1777659942 | 16.67° C | 51% | 1011.5 hPa | 0 mm | - | 744 W/m² | - |
| 1777659639 | 16.67° C | 50% | 1011.6 hPa | 0 mm | - | 751 W/m² | - |
| 1777659337 | 16.67° C | 51% | 1011.5 hPa | 0 mm | - | 759 W/m² | - |
| 1777659033 | 16.11° C | 51% | 1011.5 hPa | 0 mm | - | 765 W/m² | - |
| 1777658731 | 15.56° C | 51% | 1011.7 hPa | 0 mm | - | 771 W/m² | - |
| 1777658427 | 16.11° C | 53% | 1011.9 hPa | 0 mm | - | 777 W/m² | - |
| 1777658124 | 15.56° C | 52% | 1011.7 hPa | 0 mm | - | 787 W/m² | - |
| 1777657821 | 16.11° C | 56% | 1011.8 hPa | 0 mm | - | 789 W/m² | - |
| 1777657518 | 16.11° C | 55% | 1011.9 hPa | 0 mm | - | 796 W/m² | - |
| 1777657215 | 16.67° C | 53% | 1011.8 hPa | 0 mm | - | 811 W/m² | - |
| 1777656912 | 16.67° C | 49% | 1011.7 hPa | 0 mm | - | 821 W/m² | - |
| 1777656609 | 15.56° C | 48% | 1011.9 hPa | 0 mm | - | 825 W/m² | - |
| 1777656304 | 16.11° C | 52% | 1011.9 hPa | 0 mm | - | 926 W/m² | - |
| 1777656000 | 15.56° C | 49% | 1012 hPa | 0 mm | - | 857 W/m² | - |
* Rain latest hour (hover to see other rain measurements)
** Current wind speed in m/s (hover to see current wind gust speed)